SCP
1 0 0 0 0 0 0 0 0 0 0 0 0 0 0 0 0 0 0 1 1 1 1 2 2 1 1 1 1 2 2 2 1 1 1 1 1 1 1 1 1 1 2 2 2 2 2 2 2
0 0 1 1 0 0 0 0 0 0 0 0 0 0 0 0 0 0 1 1 1 1 1 2 2 1 1 1 1 2 2 2 1 1 1 1 1 1 1 1 1 1 1 2 2 2 2 2 2
0 1 1 1 0 0 0 0 0 0 0 0 0 0 0 0 1 1 1 1 1 1 1 2 2 2 1 1 1 2 2 2 2 1 1 1 1 1 1 1 1 1 1 1 1 1 2 2 2
1 1 1 1 0 0 0 0 0 0 0 0 0 0 0 0 1 1 1 2 1 1 1 1 2 2 2 1 1 2 2 2 2 2 1 1 1 1 1 1 1 1 1 1 1 1 1 2 2
1 1 1 1 0 0 0 0 0 0 0 0 0 0 0 0 1 1 1 1 1 1 1 1 2 2 2 2 2 2 2 2 2 2 2 1 1 1 1 1 1 1 1 1 1 1 1 1 2
2 2 1 1 1 0 0 0 0 0 0 0 0 0 0 0 1 1 1 1 1 1 1 1 2 2 2 2 2 3 3 2 2 2 2 1 1 1 1 1 1 1 1 1 1 1 1 1 1
2 2 1 1 1 0 0 0 0 0 0 0 0 0 0 0 1 1 1 1 1 1 1 2 2 2 2 2 2 3 3 3 2 2 1 1 1 1 1 1 1 1 1 1 1 1 1 1 1
1 1 1 1 1 1 1 1 1 1 1 0 0 0 0 0 1 1 1 1 1 1 1 2 2 1 1 1 2 2 3 2 2 2 2 1 1 1 1 1 1 1 1 1 1 1 1 1 1
1 1 1 1 1 1 1 1 1 1 1 0 0 0 1 1 1 1 1 1 1 1 1 2 2 1 1 1 1 1 2 2 2 2 2 1 1 0 0 0 1 1 1 1 1 1 1 1 1
1 1 0 0 0 1 1 1 1 1 1 0 0 1 1 1 1 1 1 1 1 1 1 1 1 1 1 1 1 1 1 1 1 1 1 1 0 0 0 0 1 1 1 1 1 1 1 1 1
1 1 0 0 0 0 0 0 1 1 1 1 1 1 1 1 1 1 1 1 1 1 1 1 1 1 1 1 1 1 1 1 1 1 1 0 0 0 0 0 0 1 1 1 1 1 1 1 1
1 1 1 1 1 1 1 1 1 1 1 1 1 1 2 2 1 1 1 1 1 1 1 1 1 1 1 1 1 1 1 1 0 0 0 0 0 0 0 0 0 1 1 1 1 1 0 0 0
0 1 1 1 1 1 1 1 1 1 1 1 1 2 2 2 1 1 1 1 1 1 1 1 1 1 1 1 0 0 0 0 0 0 0 0 0 0 0 0 0 1 1 1 1 0 0 0 0
1 0 1 1 1 1 1 1 1 1 1 1 2 2 2 2 2 1 1 1 1 1 1 1 1 1 1 1 0 0 0 0 0 0 0 0 0 0 0 0 0 0 1 1 1 0 0 0 0
0 0 0 1 1 1 1 1 1 1 1 1 2 2 2 2 2 1 1 1 1 1 1 1 1 1 1 0 0 0 0 0 0 0 1 1 1 0 0 0 0 0 1 1 1 0 0 0 0
0 0 0 1 1 1 1 0 1 1 1 2 2 2 2 2 2 1 1 1 1 1 1 1 1 1 1 0 0 0 0 0 0 1 1 1 1 1 1 0 0 1 1 1 0 0 0 0 0
0 0 0 0 0 0 0 1 1 1 1 2 2 2 2 2 2 1 1 1 1 1 1 1 1 1 0 0 0 0 1 1 1 1 1 1 2 2 1 1 1 1 1 1 1 0 0 0 0
0 0 0 0 0 0 1 1 1 1 1 2 2 2 2 2 1 1 1 1 1 1 1 1 1 1 0 1 1 1 1 1 1 1 1 1 2 2 2 2 1 1 1 1 1 0 0 0 0
0 0 0 0 0 1 1 1 1 1 2 1 1 2 1 1 1 1 1 1 1 1 1 1 1 1 1 1 1 1 1 1 1 1 1 1 2 3 3 2 1 1 1 1 1 0 0 0 0
0 0 0 0 0 0 1 1 1 1 1 1 1 1 1 1 1 1 1 1 1 1 1 1 1 1 1 1 1 1 1 1 1 1 1 1 1 2 3 2 1 1 1 1 1 0 0 1 1
0 0 0 0 0 0 0 1 1 1 1 1 1 1 1 2 1 1 1 2 2 1 1 1 1 1 1 1 1 1 1 1 1 1 1 1 1 2 2 1 1 1 1 1 1 1 1 1 1
0 0 0 0 0 0 0 0 0 1 1 1 1 2 2 2 2 2 2 2 2 2 2 1 1 1 1 1 1 1 1 1 1 1 1 1 1 1 1 1 1 1 1 1 1 1 1 1 1
0 0 0 0 0 0 0 0 0 1 1 2 2 2 3 3 2 2 2 2 2 2 2 2 1 1 1 1 1 1 1 1 1 1 1 1 1 1 2 2 1 1 1 1 1 1 1 1 1
0 0 0 0 0 0 0 0 0 1 1 2 3 3 3 3 3 2 2 3 3 2 2 2 2 1 1 1 1 1 1 1 2 2 1 1 1 2 2 2 2 2 2 2 2 2 1 1 1
0 0 0 0 0 0 0 0 0 0 1 2 2 2 2 2 2 2 2 2 3 3 2 2 2 1 1 2 2 1 1 1 2 2 2 1 1 1 2 2 2 2 2 2 2 2 2 1 1
0 0 0 0 0 0 0 0 0 0 1 1 2 2 2 2 2 2 2 2 2 3 3 3 2 2 1 2 2 1 1 1 2 2 2 2 2 1 1 2 2 2 2 2 3 3 2 2 2
0 0 0 0 0 0 0 0 0 0 1 1 1 2 2 2 3 3 2 2 3 3 3 3 2 2 2 2 2 1 1 1 2 2 2 2 2 2 1 1 1 2 2 2 3 3 3 2 2
0 0 0 0 0 0 0 0 0 0 1 1 1 2 3 4 5 4 3 3 4 4 4 3 3 2 2 2 2 2 2 1 2 2 2 2 2 2 2 1 1 1 2 2 3 3 3 3 3
0 0 0 0 0 0 0 0 0 0 1 1 2 2 4 6 6 4 4 5 5 5 4 3 3 3 2 2 2 2 2 2 2 2 2 2 2 2 2 2 1 1 2 2 2 3 3 3 3
0 0 0 0 0 0 0 0 0 0 1 2 2 3 5 6 5 4 5 7 6 5 3 3 3 3 3 2 2 2 2 2 2 2 2 2 2 3 3 2 1 1 2 2 2 2 3 4 4
Wind_Speed
7 5 2 1 2 4 3 3 1 2 3 3 5 5 5 4 2 3 1 3 6 6 4 7 12 13 13 14 14 14 15 15 15 15 16 16 16 16 15 14 13 13 13 12 12 12 12 12 11
5 4 2 1 4 3 3 2 3 2 3 3 5 5 5 4 3 5 3 3 6 6 5 6 12 12 13 13 13 14 14 15 15 16 16 15 15 15 14 14 13 12 12 12 12 12 11 11 10
5 4 1 3 3 1 1 1 2 3 3 2 4 5 4 3 4 3 2 6 6 5 4 7 12 12 13 13 13 13 14 14 15 15 15 15 15 14 13 13 12 11 11 11 11 11 10 10 9
3 0 2 4 3 1 1 1 2 3 3 5 4 5 4 3 3 4 6 7 7 5 4 6 12 11 12 12 13 13 14 14 14 14 14 14 13 13 12 11 11 11 10 10 10 10 9 9 8
0 2 4 4 2 2 0 1 2 3 3 4 5 4 3 4 7 8 7 7 6 4 4 5 11 11 11 12 12 13 13 13 13 13 12 12 12 12 11 11 10 10 9 9 8 8 8 8 7
2 3 4 2 2 1 1 2 3 4 4 3 4 4 3 3 6 6 6 6 5 5 4 4 10 10 10 11 12 12 12 12 12 12 11 11 11 10 10 9 9 9 8 8 7 7 6 6 6
3 3 2 1 1 1 1 2 3 3 3 3 3 4 2 2 4 6 5 5 5 5 4 3 4 6 8 9 10 11 11 11 11 10 10 10 9 9 9 8 8 7 7 7 6 6 6 5 5
3 3 2 1 0 1 1 2 2 3 2 3 4 5 4 4 5 6 6 5 5 4 4 3 3 3 3 4 8 10 10 10 10 10 9 8 7 7 7 7 7 7 6 6 6 5 5 4 4
2 4 0 2 2 1 1 3 2 2 4 3 2 3 5 10 9 7 6 5 4 4 3 3 3 3 3 3 5 6 8 8 8 7 8 6 2 2 2 4 6 6 6 5 5 5 4 3 3
3 2 3 3 2 2 1 2 3 3 3 2 4 6 10 11 9 8 7 6 5 4 3 3 3 3 3 2 2 2 3 3 3 3 3 2 2 1 1 2 4 5 4 4 4 3 3 2 1
3 3 3 1 2 3 2 2 2 5 1 3 6 11 11 10 8 7 6 5 5 4 3 3 3 3 3 2 2 2 2 2 2 2 2 2 1 0 0 0 1 2 2 1 1 1 1 1 1
2 3 1 0 2 3 3 3 3 2 1 3 9 12 12 10 8 7 7 5 4 4 3 3 3 3 3 2 2 2 2 1 1 2 2 2 1 0 0 1 0 0 0 0 1 1 1 1 2
1 2 1 2 3 3 4 3 3 2 4 8 11 11 10 9 7 5 5 5 4 4 3 3 3 4 3 2 2 2 2 2 2 2 2 2 1 1 1 1 1 1 1 1 1 1 1 2 2
1 0 1 2 3 2 4 2 3 2 6 9 10 9 8 8 7 6 5 5 4 4 3 3 4 3 3 2 2 2 2 2 1 1 2 2 2 1 1 1 1 1 2 2 2 2 2 1 1
1 3 4 2 2 2 4 4 1 3 7 8 7 7 7 6 6 6 6 5 4 4 3 3 4 3 3 3 3 2 2 2 1 1 2 2 2 2 2 1 1 1 1 1 1 1 1 1 1
3 4 2 3 1 2 4 1 1 5 8 7 7 6 6 5 5 4 4 4 3 3 3 3 3 3 3 3 2 2 2 2 2 2 2 2 2 3 2 1 1 1 1 1 1 1 1 1 0
4 1 1 3 1 3 3 2 2 5 7 7 6 6 6 5 4 4 4 4 3 4 4 3 2 3 3 2 2 2 2 2 2 2 2 3 3 3 2 2 1 1 1 1 1 1 1 1 0
2 1 1 2 1 3 2 2 3 5 7 6 6 6 5 6 6 5 4 4 3 3 4 3 2 2 2 2 1 1 1 1 1 2 3 3 3 3 2 2 1 1 1 0 1 1 0 0 0
3 2 2 3 1 2 2 3 5 6 6 6 5 6 6 6 5 4 4 4 4 3 3 3 3 2 2 2 2 1 1 1 1 2 3 3 3 3 3 2 2 2 2 2 1 1 1 0 1
3 1 2 3 1 2 1 2 3 5 7 7 8 8 7 6 5 6 5 5 5 4 4 3 3 3 3 2 2 1 1 1 1 1 1 3 4 4 4 3 2 2 1 2 2 2 1 0 1
2 4 4 3 2 3 2 3 2 2 3 5 6 7 7 9 9 7 7 6 5 6 5 5 4 3 2 2 1 1 1 1 0 1 1 2 3 3 3 3 3 3 3 2 3 3 3 2 1
4 4 5 3 2 2 1 3 6 3 3 6 7 7 8 8 7 7 8 7 7 7 5 4 4 3 2 2 2 2 2 1 1 1 1 1 1 1 1 2 2 3 3 3 3 3 3 3 2
4 1 3 3 3 1 1 1 7 0 4 7 8 9 9 8 8 9 9 8 7 6 5 4 4 3 3 3 3 2 2 1 0 0 1 1 1 0 0 1 1 2 3 3 3 3 3 3 3
3 6 6 5 5 1 3 3 7 4 7 6 8 9 9 8 8 7 6 6 5 5 5 5 4 4 3 3 3 3 2 1 1 0 0 0 0 0 0 0 1 2 2 3 3 3 3 3 3
5 6 4 5 4 5 2 2 9 6 6 7 8 9 9 8 8 7 7 7 7 7 7 6 6 5 4 4 3 3 3 3 2 2 1 1 0 1 1 1 1 2 2 2 2 2 3 3 4
3 8 8 5 5 5 2 5 8 4 4 4 4 5 6 7 8 8 8 8 7 8 7 7 7 5 4 4 3 2 3 2 1 2 2 1 1 2 1 1 1 2 2 2 2 1 2 2 3
5 3 6 7 2 1 5 6 8 2 2 1 3 4 6 7 7 7 7 6 6 7 8 8 7 5 5 4 3 2 2 2 1 1 1 1 1 1 1 1 1 1 1 1 1 1 2 1 2
5 8 6 6 5 3 5 4 5 5 4 3 3 4 4 5 6 5 5 6 6 6 5 5 6 6 5 4 4 3 2 2 2 1 1 2 2 1 1 1 1 1 1 0 1 1 2 2 2
3 4 5 4 5 6 3 8 7 7 6 5 5 5 5 6 6 6 5 5 4 4 5 6 5 4 4 4 3 3 2 2 2 2 2 2 2 2 2 1 1 2 1 1 1 2 2 2 2
3 6 8 5 4 4 4 9 4 4 4 4 4 3 3 4 4 4 5 4 4 5 5 5 5 5 4 4 4 3 3 2 2 3 3 3 2 2 2 1 1 2 1 1 2 3 2 3 3
Wind_Direction
164 148 149 171 48 46 18 344 29 48 48 52 71 75 89 79 96 122 105 121 122 125 124 125 124 128 129 127 127 126 127 127 129 131 132 132 134 136 136 135 135 135 134 132 131 129 127 126 127
152 162 197 48 67 49 347 347 54 60 122 120 72 68 70 65 68 102 111 126 126 127 124 129 131 131 130 129 129 129 127 128 129 132 133 134 135 137 138 137 138 135 133 133 133 132 130 128 129
173 194 60 56 67 122 292 341 92 86 72 61 71 60 65 77 96 111 133 130 119 121 124 138 136 134 132 131 132 131 130 130 132 133 135 136 136 137 138 140 140 138 137 136 136 134 132 131 132
180 131 44 56 41 287 212 182 124 106 49 45 81 68 57 53 106 120 125 124 120 121 128 141 138 135 134 133 134 136 135 135 136 136 137 139 139 139 141 143 142 141 140 139 138 136 136 136 135
99 67 49 36 353 327 27 119 80 78 67 59 80 87 55 32 91 110 120 124 127 127 127 139 139 138 136 136 137 139 140 140 140 141 141 141 142 144 146 147 146 146 145 144 144 141 141 143 142
55 58 60 14 338 352 60 78 75 71 87 84 87 93 63 81 105 121 122 122 123 125 124 134 145 144 142 141 142 142 141 143 143 145 145 145 145 146 148 149 149 151 152 153 152 150 149 146 148
92 78 83 319 321 335 118 89 92 99 88 96 104 96 92 121 123 125 118 111 109 111 111 112 135 142 145 144 146 145 143 144 146 147 146 146 149 151 153 153 157 159 160 161 162 162 161 161 163
136 93 45 330 232 272 126 90 94 94 94 109 107 131 166 165 129 115 108 101 100 100 103 101 102 110 119 135 144 145 143 145 147 148 147 151 155 158 162 161 169 172 171 172 172 173 175 176 177
116 71 337 237 201 233 140 103 84 74 94 80 80 122 140 132 125 116 112 104 111 115 106 104 100 100 101 113 146 147 145 142 142 146 151 144 113 117 159 180 183 185 186 185 186 187 186 186 187
97 119 234 224 187 165 130 108 125 96 84 71 74 90 117 129 134 135 138 139 142 145 135 119 116 111 112 132 112 101 113 117 113 104 114 105 98 135 167 207 205 203 200 195 194 199 194 176 176
143 199 247 288 144 131 113 89 92 118 158 190 157 144 139 138 140 144 147 149 155 151 144 135 127 119 118 111 107 100 102 109 118 123 123 115 107 149 162 258 246 206 198 186 190 196 182 188 200
162 260 220 252 106 110 130 122 89 96 223 142 145 146 143 146 153 158 158 156 147 145 148 139 135 131 125 116 116 119 119 126 137 146 141 134 141 180 203 225 246 178 164 178 176 195 202 219 215
164 292 64 119 100 104 98 95 100 51 84 110 124 134 145 148 151 147 144 142 142 151 152 148 141 141 139 131 147 145 142 153 161 158 157 158 164 203 210 218 212 212 206 204 204 209 212 224 226
223 4 38 90 107 114 109 85 86 97 110 115 129 140 149 152 152 143 144 150 156 159 158 148 142 145 144 150 159 160 165 167 160 169 181 176 177 189 197 213 216 218 208 208 208 217 221 226 215
49 39 17 52 98 132 107 46 89 144 126 129 140 144 147 150 149 157 164 163 164 160 147 149 156 149 151 161 172 171 177 169 179 195 191 189 188 191 195 207 215 216 197 182 205 223 200 213 206
35 43 3 307 106 126 113 221 215 147 140 146 149 152 154 159 163 162 156 158 158 150 146 155 159 150 161 173 178 166 171 175 195 207 202 205 200 195 190 199 216 196 138 139 175 175 152 177 196
28 35 296 313 2 117 126 215 207 155 156 162 162 166 167 164 169 170 164 167 168 162 152 150 150 153 167 173 169 165 170 184 203 207 208 213 206 200 192 201 214 159 138 141 195 146 164 176 246
228 213 278 286 312 103 131 218 189 176 172 174 171 171 177 181 191 182 169 163 164 159 151 152 145 143 141 134 123 126 166 205 209 216 217 212 207 202 196 206 212 166 149 170 187 166 170 197 226
170 183 258 267 264 120 196 219 205 188 185 185 185 181 188 197 190 172 167 156 153 154 153 159 153 159 146 148 156 169 203 220 238 236 222 215 211 202 192 212 204 179 182 201 189 160 141 59 90
164 198 269 302 352 128 227 276 232 197 201 195 191 195 194 188 182 180 175 169 170 173 175 174 174 169 171 177 175 171 171 201 226 260 243 222 214 204 198 195 196 190 193 204 192 171 158 166 132
209 192 212 223 9 43 70 332 274 234 212 202 198 197 196 192 189 184 182 184 181 188 188 188 192 183 178 169 133 101 70 33 17 302 259 245 225 206 197 194 193 191 195 212 216 192 183 197 197
249 219 187 170 99 309 90 277 280 234 232 216 209 202 203 199 186 183 185 189 195 199 192 189 182 180 178 155 148 153 166 196 238 261 246 256 208 189 193 192 196 201 201 212 220 199 189 184 202
211 135 129 119 127 51 4 180 282 220 240 237 219 208 203 194 187 188 192 194 194 188 190 191 179 180 173 161 167 175 193 207 233 351 357 347 44 81 151 180 191 210 211 214 216 204 193 189 195
138 71 59 52 74 339 242 178 273 232 223 234 219 211 204 190 187 190 191 183 186 183 189 185 179 190 181 173 176 182 191 189 160 74 346 327 354 355 337 215 219 222 224 224 223 214 202 202 203
93 89 40 4 11 254 252 196 249 247 230 220 212 206 197 187 183 184 181 186 190 189 190 187 186 192 188 184 189 193 193 179 182 191 198 209 285 286 286 265 234 231 231 228 222 218 214 204 205
165 139 155 191 218 270 307 233 253 262 258 233 203 182 176 180 182 187 189 189 191 191 191 190 190 191 187 190 201 194 186 186 198 190 187 202 228 246 265 244 238 241 234 226 205 217 227 211 216
141 166 159 132 149 275 280 284 300 296 309 216 166 154 172 182 181 184 183 182 188 191 192 189 186 188 189 191 192 194 189 186 200 200 202 227 247 241 235 230 245 260 238 214 186 203 224 223 228
132 143 106 121 149 235 283 273 255 264 256 237 196 188 184 176 175 177 179 183 189 191 185 175 177 184 185 185 190 193 186 194 202 202 230 243 255 258 229 228 239 259 268 247 209 231 232 220 237
109 105 106 115 151 160 234 264 232 226 223 216 218 203 188 183 181 181 181 179 173 167 167 173 174 172 180 186 185 189 192 195 197 211 233 236 233 231 234 233 232 244 255 259 240 246 232 231 248
162 163 148 153 207 177 185 262 279 228 222 208 213 196 185 184 179 172 167 159 163 171 174 174 173 176 184 183 179 189 195 195 208 228 240 238 232 226 225 228 231 242 252 250 242 252 248 238 245